| time (UTC) | temp C | wind direction | speed KPH | gust KPH | rain 1hr cm | rain 24hr cm | rain mn cm | humidity % | barometer mb |
| 20260506044557 | 7 | 292 | 0.0 | 1.6 | 0.00 | 0.00 | 0.00 | 67 | 1014.4 |
| 20260506043057 | 7 | 292 | 0.0 | 4.8 | 0.00 | 0.00 | 0.00 | 68 | 1014.5 |
| 20260506041552 | 7 | 263 | 0.0 | 0.0 | 0.00 | 0.00 | 0.00 | 68 | 1014.8 |
| 20260506040048 | 8 | 263 | 0.0 | 0.0 | 0.00 | 0.00 | 0.00 | 67 | 1015.0 |
| 20260506034551 | 8 | 263 | 0.0 | 0.0 | 0.00 | 0.00 | 0.00 | 67 | 1015.0 |
| 20260506033045 | 8 | 263 | 0.0 | 0.0 | 0.00 | 0.00 | 0.00 | 65 | 1015.1 |
| 20260506031544 | 9 | 263 | 0.0 | 0.0 | 0.00 | 0.00 | 0.00 | 65 | 1015.0 |
| 20260506030044 | 9 | 263 | 0.0 | 1.6 | 0.00 | 0.00 | 0.00 | 63 | 1015.0 |
| 20260506024550 | 10 | 263 | 0.0 | 0.0 | 0.00 | 0.00 | 0.00 | 62 | 1014.9 |
| 20260506023042 | 10 | 263 | 0.0 | 0.0 | 0.00 | 0.00 | 0.00 | 62 | 1014.8 |
| 20260506021539 | 10 | 263 | 0.0 | 4.8 | 0.00 | 0.00 | 0.00 | 60 | 1014.6 |
| 20260506020041 | 10 | 222 | 0.0 | 0.0 | 0.00 | 0.00 | 0.00 | 62 | 1014.4 |
| 20260506014537 | 10 | 222 | 0.0 | 0.0 | 0.00 | 0.00 | 0.00 | 62 | 1014.2 |
| 20260506013038 | 11 | 222 | 0.0 | 0.0 | 0.00 | 0.00 | 0.00 | 61 | 1014.2 |
| 20260506011600 | 12 | 221 | 0.0 | 0.0 | 0.00 | 0.00 | 0.00 | 60 | 1014.1 |
| 20260506010033 | 12 | 221 | 0.0 | 0.0 | 0.00 | 0.00 | 0.00 | 55 | 1014.0 |
| 20260506004535 | 13 | 222 | 0.0 | 0.0 | 0.00 | 0.00 | 0.00 | 53 | 1013.8 |
| 20260506003030 | 15 | 221 | 0.0 | 0.0 | 0.00 | 0.00 | 0.00 | 49 | 1013.8 |
| 20260506001530 | 16 | 263 | 0.0 | 4.8 | 0.00 | 0.00 | 0.00 | 48 | 1013.8 |
| 20260506000045 | 16 | 170 | 0.0 | 9.7 | 0.00 | 0.00 | 0.00 | 48 | 1013.6 |
| 20260505234539 | 16 | 273 | 0.0 | 6.4 | 0.00 | 0.00 | 0.00 | 47 | 1013.3 |
| 20260505233029 | 16 | 230 | 0.0 | 1.6 | 0.00 | 0.00 | 0.00 | 45 | 1013.1 |
| 20260505231528 | 16 | 243 | 0.0 | 3.2 | 0.00 | 0.00 | 0.00 | 44 | 1012.6 |
| 20260505230127 | 17 | 242 | 0.0 | 3.2 | 0.00 | 0.00 | 0.00 | 42 | 1012.3 |
| 20260505224536 | 18 | 104 | 0.0 | 1.6 | 0.00 | 0.00 | 0.00 | 39 | 1012.1 |
| 20260505223026 | 19 | 230 | 0.0 | 1.6 | 0.00 | 0.00 | 0.00 | 37 | 1011.8 |
| 20260505221525 | 20 | 84 | 0.0 | 4.8 | 0.00 | 0.00 | 0.00 | 34 | 1011.6 |
| 20260505220024 | 21 | 194 | 1.6 | 9.7 | 0.00 | 0.00 | 0.00 | 32 | 1011.4 |
| 20260505214523 | 21 | 160 | 1.6 | 14.5 | 0.00 | 0.00 | 0.00 | 32 | 1011.3 |
| 20260505213025 | 21 | 253 | 0.0 | 12.9 | 0.00 | 0.00 | 0.00 | 30 | 1011.3 |
| 20260505211528 | 22 | 148 | 1.6 | 6.4 | 0.00 | 0.00 | 0.00 | 29 | 1011.2 |
| 20260505210025 | 22 | 52 | 0.0 | 9.7 | 0.00 | 0.00 | 0.00 | 28 | 1011.1 |
| 20260505204520 | 22 | 343 | 1.6 | 9.7 | 0.00 | 0.00 | 0.00 | 26 | 1011.1 |
| 20260505203020 | 22 | 211 | 3.2 | 12.9 | 0.00 | 0.00 | 0.00 | 27 | 1011.0 |
| 20260505201519 | 23 | 38 | 3.2 | 25.7 | 0.00 | 0.00 | 0.00 | 26 | 1010.8 |
| 20260505200020 | 23 | 344 | 4.8 | 19.3 | 0.00 | 0.00 | 0.00 | 25 | 1010.8 |
| 20260505194518 | 23 | 305 | 3.2 | 14.5 | 0.00 | 0.00 | 0.00 | 25 | 1010.9 |
| 20260505193023 | 23 | 117 | 4.8 | 17.7 | 0.00 | 0.00 | 0.00 | 24 | 1010.8 |
| 20260505191516 | 23 | 101 | 9.7 | 20.9 | 0.00 | 0.00 | 0.00 | 23 | 1010.8 |
| 20260505190019 | 24 | 194 | 9.7 | 22.5 | 0.00 | 0.00 | 0.00 | 21 | 1010.6 |
| 20260505184520 | 23 | 117 | 8.0 | 24.1 | 0.00 | 0.00 | 0.00 | 21 | 1010.7 |
| 20260505183017 | 24 | 110 | 8.0 | 22.5 | 0.00 | 0.00 | 0.00 | 21 | 1010.6 |
| 20260505181513 | 24 | 154 | 6.4 | 19.3 | 0.00 | 0.00 | 0.00 | 19 | 1010.4 |
| 20260505180013 | 25 | 180 | 8.0 | 22.5 | 0.00 | 0.00 | 0.00 | 18 | 1010.2 |
| 20260505174511 | 24 | 132 | 6.4 | 24.1 | 0.00 | 0.00 | 0.00 | 20 | 1010.3 |
| 20260505173009 | 25 | 105 | 6.4 | 17.7 | 0.00 | 0.00 | 0.00 | 19 | 1010.3 |
| 20260505171506 | 24 | 148 | 4.8 | 16.1 | 0.00 | 0.00 | 0.00 | 19 | 1010.3 |
| 20260505170006 | 24 | 258 | 3.2 | 17.7 | 0.00 | 0.00 | 0.00 | 20 | 1010.8 |
| 20260505164501 | 23 | 118 | 3.2 | 16.1 | 0.00 | 0.00 | 0.00 | 21 | 1011.0 |
| 20260505163058 | 23 | 105 | 6.4 | 20.9 | 0.00 | 0.00 | 0.00 | 21 | 1011.3 |
| 20260505161556 | 22 | 209 | 3.2 | 11.3 | 0.00 | 0.00 | 0.00 | 21 | 1011.4 |
| 20260505153044 | 22 | 129 | 1.6 | 8.0 | 0.00 | 0.00 | 0.00 | 23 | 1012.1 |
| 20260505151543 | 21 | 121 | 1.6 | 4.8 | 0.00 | 0.00 | 0.00 | 25 | 1012.3 |
| 20260505124602 | 13 | 175 | 4.8 | 14.5 | 0.00 | 0.00 | 0.00 | 39 | 1013.5 |
| 20260505123102 | 11 | 180 | 0.0 | 12.9 | 0.00 | 0.00 | 0.00 | 42 | 1013.3 |
| 20260505121623 | 8 | 14 | 0.0 | 0.0 | 0.00 | 0.00 | 0.00 | 42 | 1012.9 |
| 20260505120052 | 10 | 14 | 0.0 | 1.6 | 0.00 | 0.00 | 0.00 | 42 | 1012.7 |
| 20260505114552 | 10 | 153 | 0.0 | 0.0 | 0.00 | 0.00 | 0.00 | 37 | 1012.5 |
| 20260505113055 | 11 | 134 | 0.0 | 3.2 | 0.00 | 0.00 | 0.00 | 35 | 1012.3 |
| 20260505111550 | 11 | 175 | 0.0 | 4.8 | 0.00 | 0.00 | 0.00 | 34 | 1012.4 |
| 20260505101544 | 7 | 348 | 0.0 | 1.6 | 0.00 | 0.00 | 0.00 | 36 | 1011.9 |
| 20260505100058 | 8 | 348 | 0.0 | 1.6 | 0.00 | 0.00 | 0.00 | 39 | 1011.7 |
| 20260505094543 | 8 | 348 | 0.0 | 1.6 | 0.00 | 0.00 | 0.00 | 37 | 1011.6 |
| 20260505093038 | 7 | 359 | 0.0 | 0.0 | 0.00 | 0.00 | 0.00 | 39 | 1011.5 |
| 20260505091549 | 7 | 342 | 0.0 | 3.2 | 0.00 | 0.00 | 0.00 | 39 | 1011.7 |
| 20260505090048 | 8 | 293 | 0.0 | 0.0 | 0.00 | 0.00 | 0.00 | 40 | 1011.8 |
| 20260505084535 | 8 | 293 | 0.0 | 0.0 | 0.00 | 0.00 | 0.00 | 36 | 1011.8 |
| 20260505083046 | 9 | 293 | 0.0 | 0.0 | 0.00 | 0.00 | 0.00 | 38 | 1011.8 |
| 20260505081539 | 8 | 293 | 0.0 | 3.2 | 0.00 | 0.00 | 0.00 | 39 | 1011.9 |
| 20260505080044 | 8 | 293 | 0.0 | 1.6 | 0.00 | 0.00 | 0.00 | 41 | 1012.2 |
| 20260505074529 | 8 | 293 | 0.0 | 0.0 | 0.00 | 0.00 | 0.00 | 42 | 1012.2 |
| 20260505073030 | 8 | 293 | 0.0 | 0.0 | 0.00 | 0.00 | 0.00 | 42 | 1012.3 |
| 20260505071537 | 8 | 293 | 0.0 | 0.0 | 0.00 | 0.00 | 0.00 | 40 | 1012.4 |
| 20260505070028 | 9 | 293 | 0.0 | 1.6 | 0.00 | 0.00 | 0.00 | 43 | 1012.6 |
| 20260505064524 | 8 | 293 | 0.0 | 3.2 | 0.00 | 0.00 | 0.00 | 43 | 1012.9 |
| 20260505063030 | 9 | 293 | 0.0 | 3.2 | 0.00 | 0.00 | 0.00 | 40 | 1013.0 |
| 20260505061524 | 9 | 293 | 0.0 | 4.8 | 0.00 | 0.00 | 0.00 | 42 | 1013.1 |
| 20260505060022 | 9 | 293 | 0.0 | 3.2 | 0.00 | 0.00 | 0.00 | 42 | 1013.1 |
| 20260505054518 | 9 | 293 | 0.0 | 3.2 | 0.00 | 0.00 | 0.00 | 42 | 1013.1 |
| 20260505053014 | 8 | 293 | 0.0 | 0.0 | 0.00 | 0.00 | 0.00 | 46 | 1013.2 |
| 20260505051517 | 8 | 293 | 0.0 | 0.0 | 0.00 | 0.00 | 0.00 | 46 | 1013.3 |